Stations météo

réclame
Mon MeteoGroup
Abbeville, France (7005): Température de l'air & dewpoint: 11.01.2018 01:00:00 - 17.01.2018 01:00:00 (CET)Abbeville, France (7005): Température de l'air 5cm: 11.01.2018 01:00:00 - 17.01.2018 01:00:00 (CET)Abbeville, France (7005): Température de l'air -20cm & Température de l'air -100cm: 11.01.2018 01:00:00 - 17.01.2018 01:00:00 (CET)Abbeville, France (7005): Vitesse du vent & gusts: 11.01.2018 01:00:00 - 17.01.2018 01:00:00 (CET)Abbeville, France (7005): Direction du vent: 11.01.2018 01:00:00 - 17.01.2018 01:00:00 (CET)Abbeville, France (7005): reduced air pressure: 11.01.2018 01:00:00 - 17.01.2018 01:00:00 (CET)Abbeville, France (7005): visibility: 11.01.2018 01:00:00 - 17.01.2018 01:00:00 (CET)Abbeville, France (7005): Ensoleillement: 11.01.2018 01:00:00 - 17.01.2018 01:00:00 (CET)Abbeville, France (7005): Quantités de précipitations: 11.01.2018 01:00:00 - 17.01.2018 01:00:00 (CET)
Date & Time tt [°C] td [°C] tt 5cm [°C] tt -20cm [°C] tt -100cm [°C] ff [km/h] ff [knt] fx [km/h] fx [knt] dd ppp [hPa] vv [km] sd [min] rr [mm]
17.01.2018 01:00:00 6,1 0,4 8,8 5,5 7,6 31 17 54 29 W 998,1 20 0 0,0
17.01.2018 00:00:00 5,7 1,0 7,4 5,6 7,6 31 17 53 28 W 997,8 20 0 0,2
16.01.2018 23:00:00 4,1 1,8 6,2 5,6 7,6 23 12 59 32 W 997,8 20 0 1,2
16.01.2018 22:00:00 5,9 3,6 8,2 5,6 7,6 26 14 50 27 W 997,2 20 0 0,0
16.01.2018 21:00:00 4,7 3,0 7,8 5,7 7,6 22 12 54 29 WSW 997,8 20 0 0,6
16.01.2018 20:00:00 4,5 2,4 7,4 5,7 7,6 16 9 45 24 WSW 998,0 20 0 0,2
16.01.2018 19:00:00 4,5 2,0 7,7 5,7 7,6 14 7 35 19 WSW 998,7 20 0 0,8
16.01.2018 18:00:00 5,8 3,1 8,9 5,8 7,6 15 8 35 19 WSW 998,8 20 0 0,0
16.01.2018 17:00:00 5,4 2,0 8,2 5,8 7,6 22 12 66 36 W 999,6 20 0 0,2
16.01.2018 16:00:00 7,2 2,1 8,6 5,7 7,6 31 17 86 46 W 999,2 20 19 0,0
16.01.2018 15:00:00 7,1 2,0 9,7 5,7 7,6 41 22 86 46 W 999,2 20 36 0,0
16.01.2018 14:00:00 7,1 2,6 11,1 5,6 7,6 30 16 55 30 W 999,2 20 0 0,0
16.01.2018 13:00:00 7,7 2,6 11,3 5,5 7,6 34 18 50 27 W 999,6 20 28 0,0
16.01.2018 12:00:00 7,0 3,6 8,9 5,6 7,6 27 15 50 27 W 1000,0 20 44 0,0
16.01.2018 11:00:00 5,2 2,9 8,2 5,6 7,6 30 16 69 37 W 999,9 17 12 1,2
16.01.2018 10:00:00 7,6 1,4 10,5 5,6 7,6 34 18 55 30 W 998,7 20 7 0,0
16.01.2018 09:00:00 7,6 3,6 10,3 5,6 7,6 32 17 55 30 W 998,3 20 0 0,0
16.01.2018 08:00:00 7,1 4,1 8,9 5,6 7,6 32 17 56 30 W 997,6 20 0 0,2
16.01.2018 07:00:00 6,4 5,8 7,9 5,6 7,6 22 12 49 27 WNW 997,2 7 0 3,5
16.01.2018 06:00:00 5,9 4,7 8,3 5,6 7,7 37 20 61 33 W 996,4 4,3 0 3,0
16.01.2018 05:00:00 7,5 5,0 10,1 5,6 7,7 28 15 53 29 WSW 996,5 20 0 0,0
16.01.2018 04:00:00 7,7 6,0 8,7 5,6 7,7 32 17 54 29 WSW 996,6 15 0 0,0
16.01.2018 03:00:00 6,9 5,5 6,3 5,5 7,7 25 13 56 30 W 997,2 20 0 2,2
16.01.2018 02:00:00 7,9 5,7 9,0 5,5 7,7 26 14 51 28 WSW 997,3 11 0 0,2
16.01.2018 01:00:00 7,7 6,2 6,0 5,5 7,7 25 13 58 32 WSW 998,1 17 0 2,0
16.01.2018 00:00:00 8,2 4,6 6,9 5,5 7,7 39 21 65 35 W 998,6 14 0 0,0
15.01.2018 23:00:00 8,2 5,3 7,6 5,4 7,7 29 16 53 29 W 998,4 20 0 0,0
15.01.2018 22:00:00 8,4 4,6 7,8 5,3 7,7 34 18 61 33 W 997,9 20 0 0,0
15.01.2018 21:00:00 9,0 5,6 8,3 5,2 7,7 38 21 63 34 W 997,9 20 0 0,0
15.01.2018 20:00:00 9,2 7,0 9,0 5,0 7,7 40 21 64 35 W 997,4 17 0 0,0
15.01.2018 19:00:00 9,5 7,6 9,1 4,9 7,7 39 21 85 46 WSW 996,2 13 0 0,2
15.01.2018 18:00:00 9,7 8,3 9,1 4,7 7,7 44 24 71 38 WSW 995,7 7 0 0,4
15.01.2018 17:00:00 9,4 8,3 7,8 4,6 7,7 26 14 44 24 WSW 995,9 17 0 0,4
15.01.2018 16:00:00 8,0 6,9 7,2 4,5 7,7 21 11 53 28 SSW 996,3 7 0 0,6
15.01.2018 15:00:00 7,5 6,3 6,4 4,4 7,7 24 13 60 33 SSW 997,3 6 0 0,8
15.01.2018 14:00:00 7,1 5,7 5,9 4,3 7,7 25 14 57 31 S 998,9 10 0 1,6
15.01.2018 13:00:00 6,5 5,0 5,9 4,2 7,7 23 12 60 32 S 1001,7 3,9 0 0,6
15.01.2018 12:00:00 7,0 4,6 5,6 4,1 7,7 25 14 74 40 S 1003,7 15 0 0,0
15.01.2018 11:00:00 6,2 4,0 5,0 4,1 7,7 19 10 42 23 S 1006,1 18 0 0,2
15.01.2018 10:00:00 6,1 3,8 4,9 4,0 7,7 16 9 39 21 S 1008,1 11 0 0,2
15.01.2018 09:00:00 5,9 3,7 4,9 4,0 7,7 18 10 39 21 S 1009,1 20 0 0,0
15.01.2018 08:00:00 5,6 4,2 4,7 3,9 7,7 16 9 41 22 S 1010,1 14 0 0,0
15.01.2018 07:00:00 5,0 4,3 4,3 4,0 7,7 13 7 31 17 S 1011,5 14 0 0,0
15.01.2018 06:00:00 4,3 4,0 3,0 4,0 7,7 10 6 22 12 S 1012,8 11 0 0,0
15.01.2018 05:00:00 3,1 2,8 1,7 4,0 7,7 5 3 13 7 SW 1014,1 4,8 0 0,0
15.01.2018 04:00:00 1,8 1,5 0,6 4,1 7,8 8 5 15 8 SSE 1014,7 0,6 0 0,0
15.01.2018 03:00:00 0,8 0,4 0,0 4,1 7,7 6 3 18 10 S 1016,0 1,1 0 0,0
15.01.2018 02:00:00 0,6 0,2 -0,9 4,3 7,7 9 5 18 10 S 1016,9 1,4 0 0,0
15.01.2018 01:00:00 0,3 -0,3 -0,8 4,4 7,8 8 4 13 7 S 1017,4 1,8 0 0,0
15.01.2018 00:00:00 0,4 -0,2 -1,3 4,5 7,8 7 4 11 6 S 1017,7 1,8 0 0,0
14.01.2018 23:00:00 0,6 -0,1 -1,9 4,6 7,8 8 5 13 7 SSE 1017,9 1,7 0 0,0
14.01.2018 22:00:00 0,6 -0,3 -1,7 4,7 7,8 5 3 8 5 SW 1018,7 1,0 0 0,0
14.01.2018 21:00:00 1,0 0,0 -2,1 4,8 7,8 5 3 8 5 S 1018,4 2,1 0 0,0
14.01.2018 20:00:00 1,4 0,2 -1,1 4,8 7,8 4 2 8 4 S 1018,1 3,1 0 0,0
14.01.2018 19:00:00 2,3 0,8 -0,8 4,9 7,8 8 4 9 5 SE 1017,8 4,2 0 0,0
14.01.2018 18:00:00 2,6 0,3 -0,6 4,9 7,8 0 0 6 3 N 1018,6 6 0 0,0
14.01.2018 17:00:00 4,0 1,0 2,5 4,7 7,8 3 1 4 2 E 1017,9 8 0 0,0
14.01.2018 16:00:00 5,6 1,3 7,6 4,6 7,8 2 1 7 4 WSW 1017,7 9 10 0,0
14.01.2018 15:00:00 5,4 1,5 7,0 4,4 7,8 3 1 12 7 S 1017,5 10 60 0,0
14.01.2018 14:00:00 4,9 1,2 6,7 4,3 7,8 5 3 11 6 SSE 1017,6 9 60 0,0
14.01.2018 13:00:00 3,8 0,8 4,9 4,3 7,8 6 3 14 8 SE 1018,1 9 50 0,0
14.01.2018 12:00:00 3,0 0,6 3,7 4,3 7,8 11 6 16 9 ESE 1018,2 8 60 0,0
14.01.2018 11:00:00 1,9 0,6 1,3 4,3 7,8 9 5 13 7 E 1018,2 6 44 0,0
14.01.2018 10:00:00 0,7 -0,3 -0,1 4,4 7,8 8 4 13 7 E 1018,1 4,8 0 0,0
14.01.2018 09:00:00 0,6 -0,4 -0,1 4,5 7,8 8 4 11 6 E 1017,8 5 0 0,0
14.01.2018 08:00:00 0,7 -0,5 -0,2 4,5 7,8 6 3 10 5 ENE 1017,6 5 0 0,0
14.01.2018 07:00:00 1,1 -0,1 0,3 4,6 7,8 7 4 13 7 NE 1017,2 5 0 0,0
14.01.2018 06:00:00 1,0 -0,3 0,1 4,7 7,8 9 5 14 7 ENE 1017,2 6 0 0,0
14.01.2018 05:00:00 1,4 -0,1 0,3 4,7 7,8 10 5 14 7 NE 1017,3 6 0 0,0
14.01.2018 04:00:00 1,8 0,0 0,8 4,8 7,8 9 5 15 8 NE 1017,6 8 0 0,0
14.01.2018 03:00:00 2,4 0,1 1,6 4,9 7,8 10 5 16 9 ENE 1017,6 9 0 0,0
14.01.2018 02:00:00 2,5 0,2 1,8 4,9 7,8 11 6 18 10 ENE 1017,5 11 0 0,0
14.01.2018 01:00:00 2,7 0,4 2,1 5,0 7,8 14 7 22 12 ENE 1018,0 11 0 0,0
14.01.2018 00:00:00 2,7 0,4 1,8 5,0 7,8 16 9 22 12 E 1018,2 12 0 0,0
13.01.2018 23:00:00 2,7 0,4 1,8 5,1 7,8 13 7 21 11 E 1018,5 12 0 0,0
13.01.2018 22:00:00 3,0 0,6 2,2 5,2 7,8 16 9 24 13 ENE 1018,8 13 0 0,0
13.01.2018 21:00:00 3,7 0,6 3,3 5,2 7,8 15 8 32 18 E 1019,2 12 0 0,0
13.01.2018 20:00:00 4,0 0,9 3,5 5,3 7,8 19 10 32 18 E 1019,3 12 0 0,0
13.01.2018 19:00:00 4,0 1,2 2,9 5,3 7,8 18 10 33 18 E 1019,2 12 0 0,0
13.01.2018 18:00:00 3,4 1,0 2,8 5,3 7,8 15 8 23 12 E 1019,4 10 0 0,0
13.01.2018 17:00:00 3,8 1,2 3,4 5,4 7,8 13 7 37 20 ESE 1019,7 10 0 0,0
13.01.2018 16:00:00 3,5 1,5 3,4 5,4 7,8 22 12 36 19 ESE 1019,8 8 0 0,0
13.01.2018 15:00:00 3,7 2,1 3,7 5,3 7,8 19 10 34 18 SE 1020,3 8 0 0,0
13.01.2018 14:00:00 3,8 2,3 3,8 5,3 7,8 18 10 32 17 ESE 1020,7 5 0 0,0
13.01.2018 13:00:00 4,6 2,6 4,5 5,3 7,8 16 9 32 18 ESE 1021,3 8 0 0,0
13.01.2018 12:00:00 5,1 2,8 5,2 5,3 7,8 16 9 31 17 ESE 1022,0 8 0 0,2
13.01.2018 11:00:00 5,3 3,1 4,8 5,2 7,8 16 9 31 17 SE 1021,9 9 0 0,0
13.01.2018 10:00:00 4,7 3,5 4,3 5,3 7,8 13 7 22 12 SE 1022,1 6 0 0,0
13.01.2018 09:00:00 4,3 3,6 3,5 5,4 7,9 12 6 27 15 SE 1022,2 4,8 0 0,0
13.01.2018 08:00:00 3,4 2,8 2,8 5,5 7,8 8 5 19 10 E 1022,1 2,5 0 0,0
13.01.2018 07:00:00 3,0 2,3 1,2 5,6 7,8 11 6 19 10 SE 1022,5 0,7 0 0,0
13.01.2018 06:00:00 1,9 0,7 1,2 5,6 7,8 8 5 13 7 ESE 1022,7 2,6 0 0,0
13.01.2018 05:00:00 2,9 1,7 1,8 5,7 7,8 9 5 12 7 E 1023,1 4,4 0 0,0
13.01.2018 04:00:00 3,3 2,0 1,7 5,8 7,8 8 4 11 6 E 1023,5 5 0 0,0
13.01.2018 03:00:00 3,4 1,9 1,7 5,9 7,8 8 4 10 5 ENE 1023,8 5 0 0,0
13.01.2018 02:00:00 4,5 2,5 2,9 5,9 7,8 6 3 8 4 E 1024,4 6 0 0,0
13.01.2018 01:00:00 5,1 2,9 4,7 5,9 7,9 5 3 17 9 SE 1025,1 7 0 0,0
13.01.2018 00:00:00 5,1 2,9 4,8 5,9 7,8 8 4 23 12 SSE 1025,5 9 0 0,0
12.01.2018 23:00:00 5,2 3,2 4,8 5,9 7,9 13 7 23 12 SSE 1025,8 12 0 0,0
12.01.2018 22:00:00 5,1 3,6 4,9 5,9 7,9 10 5 19 10 SE 1026,1 12 0 0,0
12.01.2018 21:00:00 5,2 4,2 5,1 5,9 7,9 9 5 16 9 SE 1026,1 9 0 0,0
12.01.2018 20:00:00 5,3 4,6 5,1 5,9 7,9 8 4 14 7 SE 1026,1 6 0 0,0
12.01.2018 19:00:00 5,3 4,7 5,2 5,9 7,9 4 2 13 7 SE 1026,1 6 0 0,0
12.01.2018 18:00:00 5,3 4,9 5,3 5,9 7,9 6 4 13 7 ESE 1026,1 4,2 0 0,0
12.01.2018 17:00:00 5,2 4,9 5,3 5,9 7,9 6 3 11 6 ESE 1026,4 6 0 0,0
12.01.2018 16:00:00 5,4 5,1 5,5 5,8 7,9 4 2 10 5 E 1026,3 5 0 0,0
12.01.2018 15:00:00 5,4 5,1 5,6 5,8 7,9 5 3 14 8 SE 1026,4 7 0 0,0
12.01.2018 14:00:00 5,2 5,1 5,5 5,7 7,9 7 4 16 9 E 1026,4 8 0 0,0
12.01.2018 13:00:00 4,9 4,8 5,0 5,7 7,9 6 4 16 9 SE 1026,9 6 0 0,0
12.01.2018 12:00:00 4,6 4,5 4,7 5,7 7,9 10 5 19 10 ESE 1027,2 3,3 0 0,0
12.01.2018 11:00:00 4,5 4,4 4,4 5,7 7,9 9 5 16 8 E 1027,5 2,3 0 0,0
12.01.2018 10:00:00 4,2 4,1 3,8 5,7 7,9 5 3 8 4 ESE 1027,2 0,3 0 0,0
12.01.2018 09:00:00 3,8 3,7 3,6 5,7 7,9 3 2 6 3 E 1026,9 0,8 0 0,0
12.01.2018 08:00:00 3,6 3,5 3,6 5,7 7,9 4 2 12 6 ENE 1027,1 0,4 0 0,0
12.01.2018 07:00:00 3,7 3,6 3,7 5,8 7,9 6 4 12 6 N 1026,9 0,8 0 0,0
12.01.2018 06:00:00 3,7 3,6 3,5 5,7 7,9 5 3 15 8 ENE 1026,4 1,0 0 0,0
12.01.2018 05:00:00 3,6 3,5 3,5 5,8 7,9 9 5 15 8 ENE 1025,8 0,6 0 0,0
12.01.2018 04:00:00 4,0 3,9 3,9 5,8 7,9 9 5 13 7 ENE 1025,8 0,4 0 0,0
12.01.2018 03:00:00 4,5 4,4 4,4 5,8 7,9 9 5 12 6 N 1025,5 0,3 0 0,0
12.01.2018 02:00:00 4,4 4,3 4,2 5,8 7,9 4 2 6 4 NNW 1025,4 0,1 0 0,0
12.01.2018 01:00:00 4,3 4,2 4,0 5,8 7,9 4 2 10 5 NNE 1025,1 0,2 0 0,0
12.01.2018 00:00:00 4,0 3,9 3,3 5,8 7,9 8 4 12 7 ENE 1024,6 0,2 0 0,0
11.01.2018 23:00:00 3,9 3,8 3,5 5,9 7,9 0 0 10 6 N 1024,3 0,2 0 0,0
11.01.2018 22:00:00 4,3 4,2 4,0 5,9 7,9 7 4 17 9 N 1023,9 0,1 0 0,0
11.01.2018 21:00:00 4,0 3,9 3,6 5,9 7,9 6 4 15 8 NW 1023,5 0,2 0 0,0
11.01.2018 20:00:00 4,3 4,2 4,0 5,9 7,9 5 3 8 4 WSW 1022,7 0,3 0 0,0
11.01.2018 19:00:00 4,4 4,3 4,2 5,9 7,9 2 1 3 2 E 1021,9 0,2 0 0,2
11.01.2018 18:00:00 4,3 4,2 4,1 5,8 7,9 2 1 5 3 SSE 1021,1 0,2 0 0,0
11.01.2018 17:00:00 4,7 4,6 4,6 5,8 7,9 2 1 7 4 N 1020,4 0,3 0 0,0
11.01.2018 16:00:00 4,2 4,1 4,4 5,7 7,9 5 3 10 5 NW 1019,8 0,2 0 0,0
11.01.2018 15:00:00 3,4 3,3 4,9 5,6 7,9 7 4 11 6 N 1019,3 0,2 0 0,0
11.01.2018 14:00:00 3,7 3,6 4,6 5,6 7,9 4 2 6 3 W 1018,2 0,1 0 0,0
11.01.2018 13:00:00 3,3 3,2 3,8 5,5 7,9 2 1 8 4 SE 1018,0 0,1 0 0,0
11.01.2018 12:00:00 3,1 3,0 3,2 5,5 8,0 0 0 12 6 N 1017,5 0,1 0 0,0
11.01.2018 11:00:00 2,5 2,4 2,5 5,5 7,9 5 3 9 5 E 1016,7 0,1 0 0,0
11.01.2018 10:00:00 2,1 2,0 1,9 5,6 7,9 2 1 10 5 E 1016,0 0,1 0 0,0
11.01.2018 09:00:00 2,0 1,7 1,9 5,6 7,9 5 3 11 6 SE 1015,0 0,2 0 0,0
11.01.2018 08:00:00 2,4 2,1 2,3 5,6 7,9 4 2 7 4 SE 1014,0 0,2 0 0,0
11.01.2018 07:00:00 2,5 2,2 2,4 5,7 7,9 4 2 13 7 ESE 1012,9 0,1 0 0,0
11.01.2018 06:00:00 2,9 2,6 2,6 5,8 8,0 9 5 15 8 SE 1012,1 0,2 0 0,0
11.01.2018 05:00:00 2,7 2,3 2,1 5,8 8,0 11 6 18 10 SE 1011,3 0,2 0 0,2
11.01.2018 04:00:00 2,4 1,8 2,1 5,9 7,9 8 5 12 7 ESE 1010,8 0,1 0 0,0
11.01.2018 03:00:00 3,6 3,0 3,0 6,0 8,0 9 5 12 6 E 1010,2 1,1 0 0,0
11.01.2018 02:00:00 4,2 3,5 3,4 6,1 8,0 8 5 11 6 ESE 1009,8 4,7 0 0,0
11.01.2018 01:00:00 4,8 4,1 3,6 6,2 8,0 7 4 11 6 SE 1009,5 9 0 0,0

tt = Température de l'air
td = dewpoint
tt 5cm = Température de l'air 5cm
tt -20cm = Température de l'air -20cm
tt -100cm = Température de l'air -100cm
ff = Vitesse du vent
fx = gusts
dd = Direction du vent
ppp = reduced air pressure
vv = visibility
sd = Ensoleillement
rr = Quantités de précipitations

stations d'obs. à proximité